METAR Formatted Surface Weather Observation
Issued by NWS

Home | Current Version | Previous Version | Text Only | Print | Product List | Glossary On
Versions: 1 2 3 4 5 6 7 8 9 10 11 12 13 14 15 16 17 18 19 20 21 22 23 24 25 26 27 28 29 30 31 32 33 34 35 36 37 38 39 40 41 42 43 44 45 46 47 48 49 50
695
SAUS44 KMAF 240702 COR
MTRGDP
METAR KGDP 240651Z AUTO 25031G39KT 10SM CLR 09/M14 A2981 RMK AO2 PK
WND 25047/0557 SLP039 T00891139 402060089 PWINO



USA.gov is the U.S. government's official web portal to all federal, state and local government web resources and services.